User: anonymous   Login
Location: Unspecified
(0.0000°N, 0.0000°E)
Time: 10:49:13
(UTC+00:00)
Language:

FALCON 9 R/B - Orbit

View from above orbital plane
View from above orbital plane
View from above satellite
View from above satellite

Ground track
Ground track

The orbit data is extracted from the following two-line orbital elements,

1 39271U 13055G   19081.32483567 +.00003917 +00000-0 +94717-4 0  9995
2 39271 080.9702 032.8850 0606218 088.8403 278.2133 14.43989581285249
Epoch (UTC): 22 March 2019 07:47:45
Eccentricity: 0.0606218
inclination: 80.9702°
perigee height: 313 km
apogee height: 1177 km
right ascension of ascending node: 32.8850°
argument of perigee: 88.8403°
revolutions per day: 14.43989581
mean anomaly at epoch: 278.2133°
orbit number at epoch: 28524

The dashed part of the orbit path shows where the satellite is in the earth's shadow,  

DLR